EXS74VP EGKK-EDDF

Flight info

Callsign EXS74VP
Flight time 1h 13m
Altitude 35000
Route DVR UL9 KONAN UL607 KOK DCT REMBA UL607 SPI T180 NIVNU/N0416F230 T847 IMCOM IMCOM2C
Aircraft B738/M-SDE2E3FGHIRWXY/LB1

Departure

Time 2026-05-07 21:50
Airport London Gatwick Airport (EGKK)

Arrival

Time 2026-05-07 23:04
Airport Frankfurt Main Airport (EDDF)
Time Latitude Longitude Altitude Speed Heading
2026-05-07 20:44 51.15772 -0.16920 203 ft 0 kts 49°
2026-05-07 21:29 51.15767 -0.16929 215 ft 4 kts 49°
2026-05-07 21:29 51.15749 -0.16961 203 ft 4 kts 49°
2026-05-07 21:29 51.15732 -0.16993 212 ft 3 kts 49°
2026-05-07 21:30 51.15719 -0.17021 203 ft 4 kts 82°
2026-05-07 21:30 51.15725 -0.17049 205 ft 4 kts 156°
2026-05-07 21:30 51.15750 -0.17060 203 ft 4 kts 168°
2026-05-07 21:30 51.15756 -0.17062 207 ft 0 kts 168°
2026-05-07 21:35 51.15755 -0.17062 212 ft 0 kts 168°
2026-05-07 21:35 51.15746 -0.17059 211 ft 2 kts 167°
2026-05-07 21:35 51.15722 -0.17050 203 ft 5 kts 167°
2026-05-07 21:36 51.15683 -0.17037 203 ft 7 kts 167°
2026-05-07 21:36 51.15638 -0.17058 206 ft 7 kts 234°
2026-05-07 21:36 51.15627 -0.17144 205 ft 9 kts 261°
2026-05-07 21:36 51.15612 -0.17247 213 ft 10 kts 253°
2026-05-07 21:37 51.15593 -0.17359 211 ft 9 kts 257°
2026-05-07 21:37 51.15553 -0.17435 206 ft 10 kts 183°
2026-05-07 21:37 51.15484 -0.17416 206 ft 10 kts 168°
2026-05-07 21:37 51.15418 -0.17393 204 ft 10 kts 167°
2026-05-07 21:38 51.15353 -0.17370 209 ft 9 kts 167°
2026-05-07 21:38 51.15304 -0.17410 210 ft 9 kts 255°
2026-05-07 21:38 51.15288 -0.17509 208 ft 9 kts 257°
2026-05-07 21:38 51.15278 -0.17607 203 ft 9 kts 258°
2026-05-07 21:39 51.15266 -0.17702 214 ft 9 kts 258°
2026-05-07 21:39 51.15253 -0.17793 212 ft 8 kts 258°
2026-05-07 21:39 51.15242 -0.17882 203 ft 8 kts 258°
2026-05-07 21:39 51.15229 -0.17968 213 ft 8 kts 256°
2026-05-07 21:40 51.15217 -0.18052 214 ft 8 kts 257°
2026-05-07 21:40 51.15206 -0.18132 207 ft 7 kts 257°
2026-05-07 21:40 51.15195 -0.18211 211 ft 7 kts 258°
2026-05-07 21:40 51.15188 -0.18291 213 ft 8 kts 264°
2026-05-07 21:41 51.15178 -0.18387 206 ft 10 kts 257°
2026-05-07 21:41 51.15161 -0.18501 212 ft 11 kts 257°
2026-05-07 21:41 51.15143 -0.18632 212 ft 13 kts 258°
2026-05-07 21:41 51.15124 -0.18780 207 ft 14 kts 257°
2026-05-07 21:42 51.15100 -0.18939 212 ft 15 kts 257°
2026-05-07 21:42 51.15078 -0.19094 210 ft 14 kts 257°
2026-05-07 21:42 51.15056 -0.19241 211 ft 13 kts 260°
2026-05-07 21:42 51.15040 -0.19384 208 ft 13 kts 259°
2026-05-07 21:43 51.15024 -0.19523 207 ft 13 kts 255°
2026-05-07 21:43 51.15003 -0.19656 214 ft 12 kts 258°
2026-05-07 21:43 51.14985 -0.19787 213 ft 12 kts 258°
2026-05-07 21:43 51.14968 -0.19914 206 ft 12 kts 258°
2026-05-07 21:44 51.14950 -0.20038 212 ft 11 kts 256°
2026-05-07 21:44 51.14933 -0.20159 210 ft 11 kts 257°
2026-05-07 21:44 51.14916 -0.20276 209 ft 11 kts 257°
2026-05-07 21:44 51.14900 -0.20389 209 ft 10 kts 257°
2026-05-07 21:45 51.14884 -0.20500 211 ft 10 kts 257°
2026-05-07 21:45 51.14869 -0.20607 205 ft 10 kts 257°
2026-05-07 21:45 51.14854 -0.20711 202 ft 10 kts 257°
2026-05-07 21:45 51.14840 -0.20813 213 ft 9 kts 257°
2026-05-07 21:46 51.14826 -0.20913 206 ft 9 kts 257°
2026-05-07 21:46 51.14812 -0.21009 210 ft 9 kts 257°
2026-05-07 21:46 51.14799 -0.21101 203 ft 9 kts 257°
2026-05-07 21:46 51.14782 -0.21192 203 ft 8 kts 253°
2026-05-07 21:47 51.14767 -0.21278 211 ft 8 kts 256°
2026-05-07 21:47 51.14754 -0.21363 203 ft 8 kts 252°
2026-05-07 21:47 51.14708 -0.21394 203 ft 8 kts 173°
2026-05-07 21:47 51.14662 -0.21359 203 ft 7 kts 143°
2026-05-07 21:48 51.14615 -0.21329 207 ft 8 kts 165°
2026-05-07 21:48 51.14559 -0.21306 202 ft 6 kts 159°
2026-05-07 21:48 51.14531 -0.21251 201 ft 8 kts 121°
2026-05-07 21:48 51.14521 -0.21159 201 ft 9 kts 83°
2026-05-07 21:49 51.14534 -0.21065 214 ft 9 kts 77°
2026-05-07 21:49 51.14559 -0.20890 208 ft 24 kts 77°
2026-05-07 21:49 51.14640 -0.20291 205 ft 89 kts 78°
2026-05-07 21:49 51.14820 -0.18995 207 ft 148 kts 77°
2026-05-07 21:50 51.15073 -0.17213 484 ft 173 kts 76°
2026-05-07 21:50 51.15341 -0.15417 1348 ft 167 kts 76°
2026-05-07 21:50 51.15643 -0.13548 1879 ft 181 kts 74°
2026-05-07 21:50 51.15939 -0.11520 2344 ft 197 kts 78°
2026-05-07 21:51 51.16202 -0.09307 2677 ft 214 kts 78°
2026-05-07 21:51 51.16515 -0.06890 2946 ft 229 kts 78°
2026-05-07 21:51 51.16858 -0.04290 3173 ft 249 kts 80°
2026-05-07 21:51 51.16958 -0.01485 3770 ft 258 kts 94°
2026-05-07 21:52 51.16859 0.01362 4546 ft 259 kts 94°
2026-05-07 21:52 51.16777 0.04262 5249 ft 264 kts 93°
2026-05-07 21:52 51.16711 0.07199 5974 ft 267 kts 92°
2026-05-07 21:52 51.16651 0.10190 6656 ft 272 kts 92°
2026-05-07 21:53 51.16593 0.13220 7349 ft 276 kts 92°
2026-05-07 21:53 51.16541 0.16288 8041 ft 279 kts 91°
2026-05-07 21:53 51.16542 0.19401 8720 ft 283 kts 90°
2026-05-07 21:53 51.16559 0.22553 9392 ft 286 kts 90°
2026-05-07 21:54 51.16572 0.25704 10043 ft 290 kts 90°
2026-05-07 21:54 51.16580 0.28928 10714 ft 293 kts 91°
2026-05-07 21:54 51.16586 0.32198 11350 ft 297 kts 91°
2026-05-07 21:54 51.16589 0.35552 11714 ft 313 kts 91°
2026-05-07 21:55 51.16590 0.39134 11878 ft 334 kts 91°
2026-05-07 21:55 51.16602 0.42945 12031 ft 354 kts 88°
2026-05-07 21:55 51.17159 0.46861 12163 ft 376 kts 65°
2026-05-07 21:55 51.18772 0.50207 12444 ft 389 kts 40°
2026-05-07 21:56 51.21100 0.52441 12996 ft 393 kts 25°
2026-05-07 21:56 51.23575 0.54327 13628 ft 396 kts 25°
2026-05-07 21:56 51.25993 0.56459 14167 ft 401 kts 38°
2026-05-07 21:56 51.27805 0.59834 14756 ft 404 kts 62°
2026-05-07 21:57 51.28723 0.64054 15424 ft 404 kts 81°
2026-05-07 21:57 51.28809 0.68530 15997 ft 406 kts 99°
2026-05-07 21:57 51.28129 0.72916 16546 ft 408 kts 108°
2026-05-07 21:57 51.27306 0.77277 17085 ft 412 kts 108°
2026-05-07 21:58 51.26459 0.81666 17617 ft 416 kts 108°
2026-05-07 21:58 51.25610 0.86100 18146 ft 419 kts 108°
2026-05-07 21:58 51.24763 0.90577 18654 ft 423 kts 108°
2026-05-07 21:58 51.23920 0.95086 19154 ft 426 kts 108°
2026-05-07 21:59 51.23073 0.99648 19631 ft 430 kts 108°
2026-05-07 21:59 51.22223 1.04230 20098 ft 433 kts 108°
2026-05-07 21:59 51.21364 1.08858 20571 ft 436 kts 108°
2026-05-07 21:59 51.20498 1.13514 21012 ft 440 kts 108°
2026-05-07 22:00 51.19622 1.18206 21469 ft 442 kts 108°
2026-05-07 22:00 51.18742 1.22913 21873 ft 446 kts 108°
2026-05-07 22:00 51.17850 1.27673 22287 ft 449 kts 108°
2026-05-07 22:00 51.16951 1.32452 22696 ft 451 kts 108°
2026-05-07 22:01 51.16182 1.37318 23077 ft 455 kts 100°
2026-05-07 22:01 51.15859 1.42353 23461 ft 459 kts 95°
2026-05-07 22:01 51.15648 1.47439 23822 ft 462 kts 94°
2026-05-07 22:01 51.15444 1.52558 24165 ft 465 kts 95°
2026-05-07 22:02 51.15226 1.57708 24531 ft 467 kts 95°
2026-05-07 22:02 51.14990 1.62875 24888 ft 469 kts 95°
2026-05-07 22:02 51.14740 1.68063 25196 ft 471 kts 95°
2026-05-07 22:02 51.14479 1.73282 25503 ft 474 kts 96°
2026-05-07 22:03 51.14211 1.78508 25832 ft 476 kts 96°
2026-05-07 22:03 51.13941 1.83769 26152 ft 477 kts 96°
2026-05-07 22:03 51.13670 1.89052 26404 ft 480 kts 96°
2026-05-07 22:03 51.13395 1.94361 26672 ft 483 kts 96°
2026-05-07 22:04 51.13211 1.97888 26872 ft 484 kts 96°
2026-05-07 22:04 51.12930 2.03237 27148 ft 485 kts 96°
2026-05-07 22:04 51.12645 2.08591 27466 ft 486 kts 96°
2026-05-07 22:04 51.12359 2.13943 27868 ft 484 kts 96°
2026-05-07 22:05 51.12073 2.19276 28264 ft 483 kts 96°
2026-05-07 22:05 51.11784 2.24599 28636 ft 482 kts 96°
2026-05-07 22:05 51.11493 2.29911 28996 ft 481 kts 96°
2026-05-07 22:05 51.11200 2.35215 29363 ft 480 kts 96°
2026-05-07 22:06 51.10906 2.40500 29729 ft 479 kts 96°
2026-05-07 22:06 51.10609 2.45786 30049 ft 479 kts 96°
2026-05-07 22:06 51.10310 2.51072 30366 ft 479 kts 96°
2026-05-07 22:06 51.10011 2.56339 30712 ft 478 kts 96°
2026-05-07 22:07 51.09709 2.61596 31066 ft 477 kts 96°
2026-05-07 22:07 51.09291 2.66822 31361 ft 476 kts 103°
2026-05-07 22:07 51.08470 2.71915 31612 ft 475 kts 108°
2026-05-07 22:07 51.07534 2.76939 31912 ft 474 kts 108°
2026-05-07 22:08 51.06573 2.81950 32243 ft 473 kts 109°
2026-05-07 22:08 51.05615 2.86944 32546 ft 472 kts 108°
2026-05-07 22:08 51.04668 2.91938 32818 ft 472 kts 108°
2026-05-07 22:08 51.03732 2.96941 33093 ft 472 kts 108°
2026-05-07 22:09 51.02806 3.01936 33357 ft 471 kts 108°
2026-05-07 22:09 51.01885 3.06932 33630 ft 471 kts 108°
2026-05-07 22:09 51.00968 3.11913 33925 ft 470 kts 108°
2026-05-07 22:09 51.00051 3.16881 34188 ft 469 kts 108°
2026-05-07 22:10 50.99132 3.21851 34412 ft 469 kts 108°
2026-05-07 22:10 50.98208 3.26828 34616 ft 470 kts 108°
2026-05-07 22:10 50.97283 3.31798 34842 ft 470 kts 108°
2026-05-07 22:10 50.96355 3.36760 35064 ft 470 kts 108°
2026-05-07 22:11 50.94489 3.46698 35098 ft 475 kts 108°
2026-05-07 22:11 50.92599 3.56715 35083 ft 472 kts 108°
2026-05-07 22:12 50.90723 3.66602 35095 ft 467 kts 108°
2026-05-07 22:12 50.88845 3.76451 35096 ft 467 kts 108°
2026-05-07 22:13 50.86961 3.86280 35095 ft 467 kts 108°
2026-05-07 22:13 50.85067 3.96108 35103 ft 467 kts 109°
2026-05-07 22:14 50.83165 4.05933 35101 ft 468 kts 109°
2026-05-07 22:14 50.81246 4.15779 35099 ft 469 kts 109°
2026-05-07 22:15 50.79319 4.25629 35104 ft 470 kts 109°
2026-05-07 22:15 50.77381 4.35490 35106 ft 471 kts 109°
2026-05-07 22:16 50.75429 4.45366 35101 ft 471 kts 109°
2026-05-07 22:16 50.73465 4.55247 35103 ft 472 kts 109°
2026-05-07 22:17 50.71492 4.65125 35101 ft 472 kts 109°
2026-05-07 22:17 50.69513 4.74989 35104 ft 472 kts 109°
2026-05-07 22:18 50.66527 4.89785 35104 ft 472 kts 109°
2026-05-07 22:19 50.64524 4.99623 35101 ft 471 kts 109°
2026-05-07 22:19 50.62511 5.09446 35103 ft 471 kts 109°
2026-05-07 22:20 50.60504 5.19193 35099 ft 471 kts 109°
2026-05-07 22:20 50.58479 5.28983 35099 ft 471 kts 109°
2026-05-07 22:21 50.56446 5.38770 35101 ft 471 kts 109°
2026-05-07 22:21 50.54406 5.48551 35099 ft 470 kts 110°
2026-05-07 22:22 50.52358 5.58322 35103 ft 471 kts 110°
2026-05-07 22:22 50.50357 5.68115 35100 ft 471 kts 108°
2026-05-07 22:23 50.48537 5.78014 35101 ft 472 kts 107°
2026-05-07 22:23 50.46718 5.87925 35101 ft 473 kts 108°
2026-05-07 22:24 50.44859 5.97837 35087 ft 474 kts 108°
2026-05-07 22:24 50.42973 6.07780 34777 ft 481 kts 108°
2026-05-07 22:24 50.42012 6.12823 34179 ft 481 kts 108°
2026-05-07 22:25 50.41056 6.17833 33538 ft 480 kts 108°
2026-05-07 22:25 50.40097 6.22841 32861 ft 479 kts 108°
2026-05-07 22:25 50.39138 6.27846 32159 ft 480 kts 108°
2026-05-07 22:25 50.38174 6.32856 31449 ft 480 kts 108°
2026-05-07 22:26 50.37202 6.37860 30705 ft 481 kts 108°
2026-05-07 22:26 50.36295 6.42897 29955 ft 482 kts 103°
2026-05-07 22:26 50.35818 6.48108 29158 ft 484 kts 96°
2026-05-07 22:26 50.35545 6.53354 28332 ft 484 kts 95°
2026-05-07 22:27 50.35279 6.58615 27461 ft 485 kts 95°
2026-05-07 22:27 50.34984 6.63879 26644 ft 485 kts 96°
2026-05-07 22:27 50.34661 6.69103 26025 ft 479 kts 96°
2026-05-07 22:27 50.34328 6.74263 25385 ft 474 kts 96°
2026-05-07 22:28 50.34004 6.79382 24759 ft 469 kts 96°
2026-05-07 22:28 50.33605 6.84412 24130 ft 463 kts 102°
2026-05-07 22:28 50.32765 6.89244 23523 ft 457 kts 111°
2026-05-07 22:28 50.31461 6.93747 22922 ft 451 kts 118°
2026-05-07 22:29 50.30079 6.98122 22314 ft 447 kts 117°
2026-05-07 22:29 50.28742 7.02498 21715 ft 443 kts 116°
2026-05-07 22:29 50.27440 7.06842 21130 ft 440 kts 116°
2026-05-07 22:29 50.26168 7.11116 20567 ft 438 kts 116°
2026-05-07 22:30 50.24872 7.15466 19976 ft 434 kts 116°
2026-05-07 22:30 50.23620 7.19653 19412 ft 429 kts 116°
2026-05-07 22:30 50.22361 7.23854 18850 ft 425 kts 116°
2026-05-07 22:30 50.21112 7.28003 18288 ft 420 kts 116°
2026-05-07 22:31 50.19874 7.32110 17743 ft 416 kts 116°
2026-05-07 22:31 50.18747 7.36254 17202 ft 413 kts 112°
2026-05-07 22:31 50.17744 7.40439 16669 ft 412 kts 110°
2026-05-07 22:31 50.16773 7.44653 16130 ft 414 kts 110°
2026-05-07 22:32 50.15801 7.48865 15582 ft 412 kts 110°
2026-05-07 22:32 50.14821 7.53044 15227 ft 409 kts 111°
2026-05-07 22:32 50.13844 7.57152 15109 ft 398 kts 111°
2026-05-07 22:32 50.12886 7.61147 14703 ft 393 kts 111°
2026-05-07 22:33 50.11920 7.65154 13901 ft 397 kts 111°
2026-05-07 22:33 50.10958 7.69196 13456 ft 400 kts 110°
2026-05-07 22:33 50.10112 7.73343 13053 ft 401 kts 107°
2026-05-07 22:33 50.09338 7.77489 12859 ft 396 kts 107°
2026-05-07 22:34 50.08562 7.81607 12736 ft 397 kts 107°
2026-05-07 22:34 50.07768 7.85716 12621 ft 397 kts 107°
2026-05-07 22:34 50.06956 7.89825 12512 ft 397 kts 108°
2026-05-07 22:34 50.06132 7.93926 12393 ft 397 kts 108°
2026-05-07 22:35 50.05306 7.98024 12292 ft 396 kts 108°
2026-05-07 22:35 50.04481 8.02116 12183 ft 396 kts 108°
2026-05-07 22:35 50.03659 8.06199 12069 ft 396 kts 108°
2026-05-07 22:35 50.02838 8.10277 11961 ft 395 kts 108°
2026-05-07 22:36 50.02017 8.14338 11856 ft 394 kts 108°
2026-05-07 22:36 50.01265 8.18429 11742 ft 393 kts 102°
2026-05-07 22:36 50.00974 8.22643 11641 ft 392 kts 91°
2026-05-07 22:36 50.01167 8.26859 11531 ft 391 kts 80°
2026-05-07 22:37 50.01674 8.31001 11433 ft 390 kts 78°
2026-05-07 22:37 50.02184 8.35142 11320 ft 389 kts 79°
2026-05-07 22:37 50.02667 8.39274 11212 ft 389 kts 79°
2026-05-07 22:37 50.03125 8.43359 11103 ft 388 kts 80°
2026-05-07 22:38 50.03582 8.47483 10988 ft 387 kts 80°
2026-05-07 22:38 50.04037 8.51594 10888 ft 385 kts 80°
2026-05-07 22:38 50.04489 8.55682 10776 ft 380 kts 80°
2026-05-07 22:38 50.04929 8.59663 10654 ft 366 kts 80°
2026-05-07 22:39 50.05363 8.63490 10554 ft 352 kts 78°
2026-05-07 22:39 50.06038 8.67073 10456 ft 339 kts 69°
2026-05-07 22:39 50.06847 8.70448 10366 ft 327 kts 69°
2026-05-07 22:39 50.07649 8.73743 10275 ft 316 kts 69°
2026-05-07 22:40 50.08404 8.76895 10187 ft 306 kts 69°
2026-05-07 22:40 50.09115 8.79914 10109 ft 296 kts 69°
2026-05-07 22:40 50.09812 8.82903 10081 ft 284 kts 69°
2026-05-07 22:40 50.10473 8.85762 9978 ft 278 kts 69°
2026-05-07 22:41 50.11113 8.88544 9901 ft 275 kts 70°
2026-05-07 22:41 50.11756 8.91344 9827 ft 276 kts 70°
2026-05-07 22:41 50.12409 8.94172 9758 ft 279 kts 69°
2026-05-07 22:41 50.13079 8.97029 9681 ft 282 kts 69°
2026-05-07 22:42 50.13758 8.99925 9586 ft 280 kts 69°
2026-05-07 22:42 50.14416 9.02729 9512 ft 278 kts 69°
2026-05-07 22:42 50.15073 9.05543 9428 ft 273 kts 69°
2026-05-07 22:42 50.15596 9.08338 9319 ft 265 kts 86°
2026-05-07 22:43 50.15291 9.11086 9245 ft 255 kts 116°
2026-05-07 22:43 50.14250 9.13257 9196 ft 249 kts 139°
2026-05-07 22:43 50.12788 9.14655 9136 ft 248 kts 159°
2026-05-07 22:43 50.11134 9.15480 9076 ft 252 kts 174°
2026-05-07 22:44 50.09423 9.15060 9003 ft 252 kts 208°
2026-05-07 22:44 50.08120 9.13302 8944 ft 250 kts 237°
2026-05-07 22:44 50.07360 9.10877 8885 ft 250 kts 250°
2026-05-07 22:44 50.06768 9.08327 8812 ft 251 kts 251°
2026-05-07 22:45 50.06201 9.05749 8738 ft 252 kts 251°
2026-05-07 22:45 50.05624 9.03170 8664 ft 253 kts 251°
2026-05-07 22:45 50.05033 9.00597 8589 ft 252 kts 251°
2026-05-07 22:45 50.04435 8.98030 8514 ft 252 kts 250°
2026-05-07 22:46 50.03839 8.95473 8447 ft 251 kts 250°
2026-05-07 22:46 50.03243 8.92927 8374 ft 250 kts 250°
2026-05-07 22:46 50.02648 8.90390 8303 ft 250 kts 250°
2026-05-07 22:46 50.02053 8.87856 8236 ft 249 kts 250°
2026-05-07 22:47 50.01461 8.85339 8162 ft 248 kts 250°
2026-05-07 22:47 50.00870 8.82827 8100 ft 247 kts 250°
2026-05-07 22:47 50.00282 8.80325 8031 ft 246 kts 250°
2026-05-07 22:47 49.99693 8.77830 7966 ft 246 kts 250°
2026-05-07 22:48 49.99104 8.75340 7896 ft 245 kts 250°
2026-05-07 22:48 49.98517 8.72863 7823 ft 244 kts 250°
2026-05-07 22:48 49.97931 8.70396 7756 ft 243 kts 250°
2026-05-07 22:48 49.97341 8.67937 7704 ft 243 kts 250°
2026-05-07 22:49 49.96761 8.65520 7628 ft 242 kts 250°
2026-05-07 22:49 49.96173 8.63071 7558 ft 242 kts 250°
2026-05-07 22:49 49.95586 8.60630 7488 ft 241 kts 250°
2026-05-07 22:49 49.95000 8.58195 7422 ft 241 kts 250°
2026-05-07 22:50 49.94416 8.55772 7358 ft 239 kts 250°
2026-05-07 22:50 49.93832 8.53351 7294 ft 239 kts 250°
2026-05-07 22:50 49.93249 8.50936 7227 ft 239 kts 250°
2026-05-07 22:50 49.92663 8.48514 7150 ft 239 kts 250°
2026-05-07 22:51 49.92079 8.46095 7097 ft 240 kts 250°
2026-05-07 22:51 49.91495 8.43672 7030 ft 240 kts 250°
2026-05-07 22:51 49.91099 8.42030 6983 ft 240 kts 250°
2026-05-07 22:51 49.90513 8.39598 6929 ft 241 kts 250°
2026-05-07 22:52 49.89925 8.37165 6849 ft 241 kts 250°
2026-05-07 22:52 49.89334 8.34727 6777 ft 241 kts 250°
2026-05-07 22:52 49.88751 8.32322 6713 ft 242 kts 250°
2026-05-07 22:52 49.88159 8.29882 6649 ft 242 kts 250°
2026-05-07 22:53 49.87566 8.27437 6585 ft 242 kts 250°
2026-05-07 22:53 49.87128 8.24937 6508 ft 240 kts 268°
2026-05-07 22:53 49.87160 8.22383 6317 ft 235 kts 271°
2026-05-07 22:53 49.87162 8.19924 6214 ft 221 kts 269°
2026-05-07 22:54 49.87141 8.17580 5980 ft 215 kts 269°
2026-05-07 22:54 49.87111 8.15270 5653 ft 214 kts 269°
2026-05-07 22:54 49.87077 8.12988 5449 ft 209 kts 269°
2026-05-07 22:54 49.87040 8.10727 5281 ft 209 kts 269°
2026-05-07 22:55 49.87003 8.08494 5210 ft 205 kts 269°
2026-05-07 22:55 49.86967 8.06330 5165 ft 199 kts 270°
2026-05-07 22:55 49.87311 8.04278 5045 ft 200 kts 308°
2026-05-07 22:55 49.88423 8.03084 5022 ft 199 kts 346°
2026-05-07 22:56 49.89795 8.03268 4758 ft 204 kts 33°
2026-05-07 22:56 49.90670 8.04938 4676 ft 204 kts 65°
2026-05-07 22:56 49.91245 8.06929 4587 ft 199 kts 65°
2026-05-07 22:56 49.91814 8.08839 4502 ft 192 kts 65°
2026-05-07 22:57 49.92341 8.10727 4441 ft 189 kts 67°
2026-05-07 22:57 49.92856 8.12594 4400 ft 188 kts 63°
2026-05-07 22:57 49.93422 8.14422 4343 ft 188 kts 65°
2026-05-07 22:57 49.93939 8.16292 4293 ft 189 kts 68°
2026-05-07 22:58 49.94421 8.18204 4237 ft 191 kts 69°
2026-05-07 22:58 49.94886 8.20143 4174 ft 192 kts 69°
2026-05-07 22:58 49.95349 8.22092 4052 ft 192 kts 70°
2026-05-07 22:58 49.95803 8.24021 3993 ft 188 kts 70°
2026-05-07 22:59 49.96252 8.25923 3947 ft 189 kts 70°
2026-05-07 22:59 49.96709 8.27869 3720 ft 193 kts 70°
2026-05-07 22:59 49.97166 8.29813 3465 ft 190 kts 69°
2026-05-07 22:59 49.97617 8.31722 3230 ft 185 kts 69°
2026-05-07 23:00 49.98055 8.33581 2973 ft 181 kts 70°
2026-05-07 23:00 49.98482 8.35388 2737 ft 176 kts 69°
2026-05-07 23:00 49.98891 8.37123 2500 ft 166 kts 69°
2026-05-07 23:00 49.99279 8.38762 2288 ft 157 kts 69°
2026-05-07 23:01 49.99641 8.40293 2124 ft 143 kts 69°
2026-05-07 23:01 49.99980 8.41724 1897 ft 139 kts 69°
2026-05-07 23:01 50.00308 8.43110 1730 ft 140 kts 70°
2026-05-07 23:01 50.00650 8.44555 1554 ft 145 kts 70°
2026-05-07 23:02 50.01005 8.46053 1338 ft 151 kts 70°
2026-05-07 23:02 50.01361 8.47594 1135 ft 152 kts 69°
2026-05-07 23:02 50.01719 8.49123 984 ft 149 kts 68°
2026-05-07 23:02 50.02081 8.50618 783 ft 147 kts 68°
2026-05-07 23:03 50.02438 8.52079 558 ft 142 kts 67°
2026-05-07 23:03 50.02781 8.53502 364 ft 137 kts 68°
2026-05-07 23:03 50.03080 8.54763 336 ft 106 kts 69°
2026-05-07 23:03 50.03283 8.55612 349 ft 62 kts 70°
2026-05-07 23:04 50.03381 8.56020 354 ft 26 kts 69°
2026-05-07 23:04 50.03456 8.56241 352 ft 22 kts 53°
2026-05-07 23:04 50.03565 8.56406 352 ft 22 kts 39°
2026-05-07 23:04 50.03670 8.56541 349 ft 16 kts 39°
2026-05-07 23:05 50.03732 8.56617 353 ft 6 kts 30°
2026-05-07 23:05 50.03772 8.56641 356 ft 6 kts 21°
2026-05-07 23:05 50.03812 8.56658 352 ft 6 kts 12°
2026-05-07 23:05 50.03853 8.56670 357 ft 6 kts 10°
2026-05-07 23:06 50.03893 8.56681 354 ft 6 kts 10°
2026-05-07 23:06 50.03932 8.56693 362 ft 6 kts 11°
2026-05-07 23:06 50.03972 8.56705 354 ft 6 kts 11°
2026-05-07 23:06 50.04015 8.56715 361 ft 6 kts 22°
2026-05-07 23:07 50.04048 8.56738 356 ft 3 kts 352°
2026-05-07 23:07 50.04070 8.56728 356 ft 4 kts 345°
2026-05-07 23:07 50.04101 8.56727 360 ft 6 kts 11°
2026-05-07 23:07 50.04165 8.56764 359 ft 13 kts 21°
2026-05-07 23:08 50.04242 8.56793 364 ft 10 kts 11°
2026-05-07 23:08 50.04311 8.56814 360 ft 10 kts 12°
2026-05-07 23:08 50.04378 8.56836 359 ft 10 kts 12°
2026-05-07 23:08 50.04438 8.56850 365 ft 5 kts
2026-05-07 23:09 50.04473 8.56861 358 ft 5 kts 15°
2026-05-07 23:09 50.04507 8.56871 358 ft 5 kts 358°
2026-05-07 23:09 50.04523 8.56829 358 ft 5 kts 272°
2026-05-07 23:09 50.04532 8.56781 358 ft 1 kts 295°
2026-05-07 23:10 50.04539 8.56759 360 ft 1 kts 294°
2026-05-07 23:10 50.04542 8.56750 358 ft 1 kts 295°
2026-05-07 23:10 50.04543 8.56745 358 ft 0 kts 295°